Location: Chimay
(50.0486°N, 4.3171°E)
Time: 05:22:22
(UTC+00:00)

Cosmos 1666 - Pass Details

Date: 08 August 2020
Orbit: 498 x 519 km, 82.5° (Epoch: 19 September)

Event Time Altitude Azimuth Distance (km) Brightness Sun altitude
Exits shadow 22:37:41 65° 53° (NE) 555 2.8 -22.3°
Drops below altitude 10° 22:41:04 10° 14° (NNE) 1,721 6.1 -22.5°
Sets 22:43:13 0° 12° (NNE) 2,614 7.3 -22.6°
